Regional Weather Roundup
Issued by NWS

Home | Current Version | Previous Version | Graphics & Text | Print | Product List | Glossary On
Versions: 1 2 3 4 5 6 7 8 9 10 11 12 13 14 15 16 17 18 19 20 21 22 23 24 25 26 27 28 29 30 31 32 33 34 35 36 37 38 39 40 41 42 43 44 45 46 47 48 49 50
433
ASUS45 KCYS 240410
RWRWY

WYOMING REGIONAL WEATHER ROUNDUP
NATIONAL WEATHER SERVICE CHEYENNE WY
1000 PM MDT SAT JUL 23 2016

NOTE:  "FAIR" INDICATES FEW OR NO CLOUDS BELOW 12,000 FEET
WITH NO SIGNIFICANT WEATHER AND/OR OBSTRUCTIONS TO VISIBILITY.

WYZ001-240500-
YELLOWSTONE NATIONAL PARK

CITY           SKY/WX    TMP DP  RH WIND       PRES   REMARKS
LK YELLOWSTONE   N/A     53  34  48 CALM      30.35R
W YELLOWSTONE  NOT AVBL

$$
WYZ002>013-054>058-071-098>099-240500-
NORTHERN WYOMING

CITY           SKY/WX    TMP DP  RH WIND       PRES   REMARKS
JACKSON        FAIR      63  25  23 E3        30.22R
CODY           FAIR      72  32  23 N12       30.16R
GREYBULL       FAIR      79  34  19 NW15      30.01R
WORLAND        FAIR      75  33  21 NE3       30.02R
SHERIDAN       FAIR      63  41  44 W6        30.09R
BUFFALO        FAIR      70  34  26 NW9       30.15R
GILLETTE       FAIR      68  34  28 NE3       30.10R
HULETT         FAIR      72  36  26 NE3       30.12R
NEWCASTLE      FAIR      73  36  25 NE3       30.07R

$$
WYZ014>020-022>026-101>103-240500-
CENTRAL WYOMING

CITY           SKY/WX    TMP DP  RH WIND       PRES   REMARKS
BIG PINEY      FAIR      57  21  24 N12       30.27R
PINEDALE       FAIR      59  32  36 NW5       30.29R
DUBOIS         FAIR      64  21  19 W6        30.26R
LANDER         FAIR      73  24  16 W5        30.10R
RIVERTON       FAIR      74  26  16 N8        30.10R
CASPER         FAIR      73  36  25 NE14      30.10R
DOUGLAS          N/A    N/A N/A N/A MISG      30.10R

$$
WYZ021-027>030-104>119-240500-
SOUTHERN WYOMING

CITY           SKY/WX    TMP DP  RH WIND       PRES   REMARKS
EVANSTON       FAIR      66  19  16 W9        30.27R
KEMMERER         N/A     61  28  29 NW9       30.28R
FORT BRIDGER   CLEAR     66  14  13 W6        30.29R
ROCK SPRINGS   FAIR      69  16  13 NW6       30.23R
DIXON          CLOUDY    78  29  16 S17G24    30.24R
RAWLINS        FAIR      67  11  11 NW10      30.20R
SARATOGA       FAIR      64  37  36 SE7       30.23S
LARAMIE        FAIR      71  33  24 CALM      30.24R
CHEYENNE       FAIR      74  45  35 SW13      30.18R
TORRINGTON     FAIR      74  46  36 E10       30.02R
PINE BLUFFS    LGT RAIN  70  50  49 S18G33    30.15R

$$




USA.gov is the U.S. government's official web portal to all federal, state and local government web resources and services.